Time,TemperatureF,DewpointF,PressureIn,WindDirection,WindDirectionDegrees,WindSpeedMPH,WindSpeedGustMPH,Humidity,HourlyPrecipIn,Conditions,Clouds,dailyrainin,SoftwareType,DateUTC
2013-09-10 00:07:00,59.2,57.8,29.67,NE,45,0.0,-999.0,95,-99.99,,,0.00,Acu-Link.com,2013-09-10 07:07:00,
2013-09-10 00:23:00,58.8,57.7,29.67,NE,45,0.0,-999.0,96,-99.99,,,0.00,Acu-Link.com,2013-09-10 07:23:00,
2013-09-10 00:38:00,58.3,57.2,29.67,NE,45,0.0,-999.0,96,-99.99,,,0.00,Acu-Link.com,2013-09-10 07:38:00,
2013-09-10 00:53:00,58.1,57.3,29.67,NE,45,0.0,-999.0,97,-99.99,,,0.00,Acu-Link.com,2013-09-10 07:53:00,
2013-09-10 01:08:00,58.3,57.7,29.67,NE,45,0.0,-999.0,98,-99.99,,,0.00,Acu-Link.com,2013-09-10 08:08:00,
2013-09-10 01:24:00,58.1,57.5,29.68,NE,45,0.0,-999.0,98,-99.99,,,0.00,Acu-Link.com,2013-09-10 08:24:00,
2013-09-10 01:40:00,57.6,56.8,29.67,NE,45,0.0,-999.0,97,-99.99,,,0.00,Acu-Link.com,2013-09-10 08:40:00,
2013-09-10 01:55:00,57.4,56.8,29.67,NE,45,0.0,-999.0,98,-99.99,,,0.00,Acu-Link.com,2013-09-10 08:55:00,
2013-09-10 02:10:00,56.8,56.5,29.68,NE,45,0.0,-999.0,99,-99.99,,,0.00,Acu-Link.com,2013-09-10 09:10:00,
2013-09-10 02:25:00,56.5,56.2,29.67,NE,45,0.0,-999.0,99,-99.99,,,0.00,Acu-Link.com,2013-09-10 09:25:00,
2013-09-10 02:40:00,57.0,56.7,29.67,NE,45,0.0,-999.0,99,-99.99,,,0.00,Acu-Link.com,2013-09-10 09:40:00,
2013-09-10 02:55:00,57.4,57.1,29.67,NE,45,0.0,-999.0,99,-99.99,,,0.00,Acu-Link.com,2013-09-10 09:55:00,
2013-09-10 03:11:00,57.7,57.4,29.67,NE,45,0.0,-999.0,99,-99.99,,,0.00,Acu-Link.com,2013-09-10 10:11:00,
2013-09-10 03:26:00,57.9,57.6,29.67,NE,45,0.0,-999.0,99,-99.99,,,0.00,Acu-Link.com,2013-09-10 10:26:00,
2013-09-10 03:41:00,58.6,58.3,29.68,NE,45,0.0,-999.0,99,-99.99,,,0.00,Acu-Link.com,2013-09-10 10:41:00,
2013-09-10 03:57:00,59.2,58.9,29.68,NE,45,0.0,-999.0,99,-99.99,,,0.00,Acu-Link.com,2013-09-10 10:57:00,
2013-09-10 04:12:00,59.7,59.4,29.68,NE,45,0.0,-999.0,99,-99.99,,,0.00,Acu-Link.com,2013-09-10 11:12:00,
2013-09-10 04:27:00,59.2,58.9,29.68,NE,45,0.0,-999.0,99,-99.99,,,0.00,Acu-Link.com,2013-09-10 11:27:00,
2013-09-10 04:43:00,60.3,60.0,29.68,NE,45,0.0,-999.0,99,-99.99,,,0.00,Acu-Link.com,2013-09-10 11:43:00,
2013-09-10 04:58:00,60.4,60.1,29.69,NE,45,0.0,-999.0,99,-99.99,,,0.00,Acu-Link.com,2013-09-10 11:58:00,
2013-09-10 05:13:00,61.0,60.7,29.68,NE,45,0.0,-999.0,99,-99.99,,,0.00,Acu-Link.com,2013-09-10 12:13:00,
2013-09-10 05:28:00,61.2,60.9,29.68,NE,45,0.0,-999.0,99,-99.99,,,0.00,Acu-Link.com,2013-09-10 12:28:00,
2013-09-10 05:43:00,61.2,60.9,29.69,NE,45,0.0,-999.0,99,-99.99,,,0.00,Acu-Link.com,2013-09-10 12:43:00,
2013-09-10 05:59:00,61.5,61.2,29.70,NE,45,0.0,-999.0,99,-99.99,,,0.00,Acu-Link.com,2013-09-10 12:59:00,
2013-09-10 06:14:00,61.5,61.2,29.69,NE,45,0.0,-999.0,99,-99.99,,,0.00,Acu-Link.com,2013-09-10 13:14:00,
2013-09-10 06:29:00,61.3,61.0,29.71,NE,45,0.0,-999.0,99,-99.99,,,0.00,Acu-Link.com,2013-09-10 13:29:00,
2013-09-10 06:45:00,61.3,60.7,29.70,NE,45,0.0,-999.0,98,-99.99,,,0.00,Acu-Link.com,2013-09-10 13:45:00,
2013-09-10 07:00:00,61.7,60.5,29.72,NE,45,0.0,-999.0,96,-99.99,,,0.00,Acu-Link.com,2013-09-10 14:00:00,
2013-09-10 07:15:00,61.7,60.5,29.71,NE,45,1.7,-999.0,96,-99.99,,,0.00,Acu-Link.com,2013-09-10 14:15:00,
2013-09-10 07:31:00,61.9,60.5,29.72,NNE,22,1.7,-999.0,95,-99.99,,,0.00,Acu-Link.com,2013-09-10 14:31:00,
2013-09-10 07:46:00,62.6,60.8,29.72,NNE,22,0.0,-999.0,94,-99.99,,,0.00,Acu-Link.com,2013-09-10 14:46:00,
2013-09-10 08:01:00,63.3,61.2,29.72,NE,45,0.0,-999.0,93,-99.99,,,0.00,Acu-Link.com,2013-09-10 15:01:00,
2013-09-10 08:16:00,64.0,61.0,29.72,NE,45,2.7,-999.0,90,-99.99,,,0.00,Acu-Link.com,2013-09-10 15:16:00,
2013-09-10 08:31:00,66.0,61.4,29.73,NNE,22,0.0,-999.0,85,-99.99,,,0.00,Acu-Link.com,2013-09-10 15:31:00,
2013-09-10 08:46:00,67.6,61.6,29.73,ESE,112,1.7,-999.0,81,-99.99,,,0.00,Acu-Link.com,2013-09-10 15:46:00,
2013-09-10 09:01:00,72.0,62.1,29.73,NE,45,2.2,-999.0,71,-99.99,,,0.00,Acu-Link.com,2013-09-10 16:01:00,
2013-09-10 09:17:00,72.5,62.1,29.74,ESE,112,1.7,-999.0,70,-99.99,,,0.00,Acu-Link.com,2013-09-10 16:17:00,
2013-09-10 09:32:00,75.6,62.5,29.75,NNE,22,1.7,-999.0,64,-99.99,,,0.00,Acu-Link.com,2013-09-10 16:32:00,
2013-09-10 09:47:00,69.1,60.1,29.75,NE,45,0.0,-999.0,73,-99.99,,,0.00,Acu-Link.com,2013-09-10 16:47:00,
2013-09-10 10:02:00,71.1,60.8,29.75,WNW,292,1.7,-999.0,70,-99.99,,,0.00,Acu-Link.com,2013-09-10 17:02:00,
2013-09-10 10:18:00,72.5,61.3,29.74,ESE,112,1.7,-999.0,68,-99.99,,,0.00,Acu-Link.com,2013-09-10 17:18:00,
2013-09-10 10:33:00,72.3,60.7,29.75,NNW,337,2.2,-999.0,67,-99.99,,,0.00,Acu-Link.com,2013-09-10 17:33:00,
2013-09-10 10:48:00,73.6,61.5,29.74,NW,315,4.7,-999.0,66,-99.99,,,0.00,Acu-Link.com,2013-09-10 17:48:00,
2013-09-10 11:03:00,73.8,61.3,29.74,West,270,4.2,-999.0,65,-99.99,,,0.00,Acu-Link.com,2013-09-10 18:03:00,
2013-09-10 11:18:00,76.6,61.7,29.74,NE,45,2.2,-999.0,60,-99.99,,,0.00,Acu-Link.com,2013-09-10 18:18:00,
2013-09-10 11:33:00,77.7,61.7,29.74,WNW,292,2.7,-999.0,58,-99.99,,,0.00,Acu-Link.com,2013-09-10 18:33:00,
2013-09-10 11:49:00,77.5,62.5,29.74,North,0,6.8,-999.0,60,-99.99,,,0.00,Acu-Link.com,2013-09-10 18:49:00,
2013-09-10 12:04:00,77.7,62.2,29.75,NE,45,4.7,-999.0,59,-99.99,,,0.00,Acu-Link.com,2013-09-10 19:04:00,
2013-09-10 12:19:00,75.7,62.2,29.74,NE,45,6.3,-999.0,63,-99.99,,,0.00,Acu-Link.com,2013-09-10 19:19:00,
2013-09-10 12:34:00,78.4,62.4,29.75,NE,45,3.2,-999.0,58,-99.99,,,0.00,Acu-Link.com,2013-09-10 19:34:00,
2013-09-10 12:49:00,78.4,62.4,29.75,NE,45,2.7,-999.0,58,-99.99,,,0.00,Acu-Link.com,2013-09-10 19:49:00,
2013-09-10 13:04:00,78.8,62.8,29.75,ENE,67,4.7,-999.0,58,-99.99,,,0.00,Acu-Link.com,2013-09-10 20:04:00,
2013-09-10 13:20:00,79.7,63.1,29.74,NNE,22,3.2,-999.0,57,-99.99,,,0.00,Acu-Link.com,2013-09-10 20:20:00,
2013-09-10 13:35:00,81.1,63.4,29.73,SSW,202,3.2,-999.0,55,-99.99,,,0.00,Acu-Link.com,2013-09-10 20:35:00,
2013-09-10 13:50:00,81.5,63.2,29.73,NNE,22,5.3,-999.0,54,-99.99,,,0.00,Acu-Link.com,2013-09-10 20:50:00,
2013-09-10 14:21:00,81.9,62.5,29.73,NNW,337,3.2,-999.0,52,-99.99,,,0.00,Acu-Link.com,2013-09-10 21:21:00,
2013-09-10 14:36:00,83.7,63.6,29.72,SW,225,1.7,-999.0,51,-99.99,,,0.00,Acu-Link.com,2013-09-10 21:36:00,
2013-09-10 14:51:00,83.1,63.1,29.72,NNE,22,6.8,-999.0,51,-99.99,,,0.00,Acu-Link.com,2013-09-10 21:51:00,
2013-09-10 15:07:00,84.2,62.9,29.73,ESE,112,3.2,-999.0,49,-99.99,,,0.00,Acu-Link.com,2013-09-10 22:07:00,
2013-09-10 15:22:00,84.9,59.9,29.73,South,180,2.7,-999.0,43,-99.99,,,0.00,Acu-Link.com,2013-09-10 22:22:00,
2013-09-10 15:37:00,85.5,59.8,29.72,South,180,2.7,-999.0,42,-99.99,,,0.00,Acu-Link.com,2013-09-10 22:37:00,
2013-09-10 15:52:00,84.4,59.4,29.73,ENE,67,2.2,-999.0,43,-99.99,,,0.00,Acu-Link.com,2013-09-10 22:52:00,
2013-09-10 16:07:00,82.0,59.2,29.72,East,90,3.7,-999.0,46,-99.99,,,0.00,Acu-Link.com,2013-09-10 23:07:00,
2013-09-10 16:22:00,80.8,58.7,29.72,South,180,5.3,-999.0,47,-99.99,,,0.00,Acu-Link.com,2013-09-10 23:22:00,
2013-09-10 16:38:00,79.0,58.8,29.71,ESE,112,2.7,-999.0,50,-99.99,,,0.00,Acu-Link.com,2013-09-10 23:38:00,
2013-09-10 16:53:00,78.8,59.1,29.71,SW,225,1.7,-999.0,51,-99.99,,,0.00,Acu-Link.com,2013-09-10 23:53:00,
2013-09-10 17:09:00,77.2,58.7,29.72,ENE,67,5.3,-999.0,53,-99.99,,,0.00,Acu-Link.com,2013-09-11 00:09:00,
2013-09-10 17:24:00,77.5,59.0,29.72,ENE,67,4.7,-999.0,53,-99.99,,,0.00,Acu-Link.com,2013-09-11 00:24:00,
2013-09-10 17:39:00,75.6,58.8,29.73,NE,45,3.7,-999.0,56,-99.99,,,0.00,Acu-Link.com,2013-09-11 00:39:00,
2013-09-10 17:54:00,73.9,58.2,29.73,ENE,67,5.8,-999.0,58,-99.99,,,0.00,Acu-Link.com,2013-09-11 00:54:00,
2013-09-10 18:09:00,72.3,58.1,29.73,NE,45,3.7,-999.0,61,-99.99,,,0.00,Acu-Link.com,2013-09-11 01:09:00,
2013-09-10 18:24:00,72.0,58.7,29.74,NE,45,4.7,-999.0,63,-99.99,,,0.00,Acu-Link.com,2013-09-11 01:24:00,
2013-09-10 18:39:00,71.2,58.4,29.74,NW,315,6.3,-999.0,64,-99.99,,,0.00,Acu-Link.com,2013-09-11 01:39:00,
2013-09-10 18:55:00,69.8,58.3,29.74,ENE,67,3.7,-999.0,67,-99.99,,,0.00,Acu-Link.com,2013-09-11 01:55:00,
2013-09-10 19:10:00,68.2,58.0,29.74,ENE,67,2.7,-999.0,70,-99.99,,,0.00,Acu-Link.com,2013-09-11 02:10:00,
2013-09-10 19:25:00,66.7,57.8,29.75,East,90,3.7,-999.0,73,-99.99,,,0.00,Acu-Link.com,2013-09-11 02:25:00,
2013-09-10 19:40:00,65.7,57.6,29.75,ESE,112,5.3,-999.0,75,-99.99,,,0.00,Acu-Link.com,2013-09-11 02:40:00,
2013-09-10 19:55:00,65.1,57.7,29.77,East,90,3.2,-999.0,77,-99.99,,,0.00,Acu-Link.com,2013-09-11 02:55:00,
2013-09-10 20:10:00,64.6,57.6,29.76,ENE,67,4.2,-999.0,78,-99.99,,,0.00,Acu-Link.com,2013-09-11 03:10:00,
2013-09-10 20:26:00,64.0,57.4,29.77,NE,45,5.3,-999.0,79,-99.99,,,0.00,Acu-Link.com,2013-09-11 03:26:00,
2013-09-10 20:41:00,63.9,57.3,29.78,East,90,5.8,-999.0,79,-99.99,,,0.00,Acu-Link.com,2013-09-11 03:41:00,
2013-09-10 20:56:00,63.5,57.2,29.78,NW,315,5.3,-999.0,80,-99.99,,,0.00,Acu-Link.com,2013-09-11 03:56:00,
2013-09-10 21:11:00,63.1,56.8,29.80,NNW,337,2.7,-999.0,80,-99.99,,,0.00,Acu-Link.com,2013-09-11 04:11:00,
2013-09-10 21:26:00,62.8,56.5,29.80,East,90,5.8,-999.0,80,-99.99,,,0.00,Acu-Link.com,2013-09-11 04:26:00,
2013-09-10 21:41:00,62.6,56.7,29.80,WSW,247,5.3,-999.0,81,-99.99,,,0.00,Acu-Link.com,2013-09-11 04:41:00,
2013-09-10 21:56:00,62.4,56.5,29.80,WNW,292,2.7,-999.0,81,-99.99,,,0.00,Acu-Link.com,2013-09-11 04:56:00,
2013-09-10 22:12:00,62.2,56.0,29.80,SSW,202,4.7,-999.0,80,-99.99,,,0.00,Acu-Link.com,2013-09-11 05:12:00,
2013-09-10 22:27:00,62.2,56.0,29.81,West,270,4.7,-999.0,80,-99.99,,,0.00,Acu-Link.com,2013-09-11 05:27:00,
2013-09-10 22:42:00,62.1,55.9,29.81,SW,225,2.7,-999.0,80,-99.99,,,0.00,Acu-Link.com,2013-09-11 05:42:00,
2013-09-10 22:57:00,61.9,56.0,29.81,West,270,5.3,-999.0,81,-99.99,,,0.00,Acu-Link.com,2013-09-11 05:57:00,
2013-09-10 23:13:00,61.9,56.0,29.82,South,180,6.3,-999.0,81,-99.99,,,0.00,Acu-Link.com,2013-09-11 06:13:00,
2013-09-10 23:28:00,61.9,56.0,29.82,WNW,292,2.2,-999.0,81,-99.99,,,0.00,Acu-Link.com,2013-09-11 06:28:00,
2013-09-10 23:43:00,61.5,56.0,29.82,West,270,4.7,-999.0,82,-99.99,,,0.00,Acu-Link.com,2013-09-11 06:43:00,
2013-09-10 23:58:00,61.3,55.8,29.83,WSW,247,10.4,-999.0,82,-99.99,,,0.00,Acu-Link.com,2013-09-11 06:58:00,